Lexington Weather

Lexington, Massachusetts, USA

78°F
7/25/2024 11:53am 
  • Lexington Conditions: Mostly cloudy
  • Temperature: 77.5°F / 25.3°CWarmer 1.4°F than last hour.
  • Dew Point: 72.7°FIncreased 0.7°Fsince last hour.
  • Relative Humidity: 85%Decreased 2.0% since last hour.
  • Wind: Wind from SSW SSW 3 mph, 10-min avg: 2 mph, gust: 10 mph
  • Barometer: 29.94 inFalling 0.02  inHg/hr Falling Slowly
  • Visibility: 10 miles
  • Rain Today: 0.00 in
  •   

Regional Weather Roundup
for Boston, MA

        
000
ASUS41 KBOX 220910
RWRBOX

REGIONAL WEATHER ROUNDUP
NATIONAL WEATHER SERVICE BOSTON/NORTON MA
500 AM EDT MON JUL 22 2024

NOTE:  "FAIR" INDICATES FEW OR NO CLOUDS BELOW 12,000 FEET WITH NO 
SIGNIFICANT WEATHER AND/OR OBSTRUCTIONS TO VISIBILITY.

MAZALL-221000-
EASTERN MASSACHUSETTS
  
CITY           SKY/WX    TMP DP  RH WIND       PRES   REMARKS
BOSTON         PTCLDY    65  62  90 CALM      30.07R                  
BEVERLY        PTCLDY    59  57  93 CALM      30.06S                  
LAWRENCE       PTCLDY    62  61  96 CALM      30.10R                  
BEDFORD        PTCLDY    61  59  93 CALM      30.07R                  
NORWOOD        PTCLDY    65  63  93 CALM      30.07S FOG              
MARSHFIELD     PTCLDY    63  61  94 CALM      30.06R                  
PLYMOUTH       PTCLDY    67  64  90 CALM      30.06R                  
TAUNTON        PTCLDY    64  61  90 CALM      30.06R FOG              
NEW BEDFORD    PTCLDY    68  66  93 N3        30.05R                  
$$

MAZALL-221000-
CAPE COD AND THE ISLANDS
  
CITY           SKY/WX    TMP DP  RH WIND       PRES   REMARKS
FALMOUTH       CLEAR     66  64  94 CALM      30.07S                  
HYANNIS        PTCLDY    65  65 100 CALM      30.05R                  
CHATHAM        PTCLDY    68  67  96 CALM      30.06R                  
PROVINCETOWN   PTCLDY    62  62 100 NE3       30.07R                  
NANTUCKET      PTCLDY    68  68 100 SW3       30.06S FOG              
MARTHAS VNYRD  PTCLDY    66  65  96 CALM      30.06R                  
$$
 
MAZALL-221000-
CENTRAL AND WESTERN MASSACHUSETTS
  
CITY           SKY/WX    TMP DP  RH WIND       PRES   REMARKS
WORCESTER      PTCLDY    66  61  84 NW3       30.10S                  
FITCHBURG      PTCLDY   N/A N/A N/A N3        30.10R                  
ORANGE         CLEAR     60  58  92 CALM      30.11R                  
SPRINGFIELD    CLEAR     61  60  96 NE3       30.05S                  
WESTFIELD      CLEAR     64  62  93 N5        30.08S                  
NORTH ADAMS    CLOUDY    62  62 100 SE3       30.10S                  
PITTSFIELD     FOG       62  61  96 CALM      30.10S VSB 1/4          
$$
 
RIZALL-221000-
RHODE ISLAND
  
CITY           SKY/WX    TMP DP  RH WIND       PRES   REMARKS
PROVIDENCE     PTCLDY    68  64  87 CALM      30.07R                  
NEWPORT        PTCLDY    68  65  90 CALM      30.06S                  
BLOCK ISLAND   PTCLDY    68  66  93 SW7         N/A                   
SMITHFIELD     PTCLDY    64  64 100 N5        30.08S                  
WESTERLY       PTCLDY    68  65  90 CALM      30.06S                  
$$
 
CTZALL-221000-
CONNECTICUT
  
CITY           SKY/WX    TMP DP  RH WIND       PRES   REMARKS
BRADLEY INTL   PTCLDY    67  64  90 N5        30.07S                  
HARTFORD       PTCLDY    68  66  93 CALM      30.06R                  
PLAINVILLE     PTSUNNY   66  65  97 N5        30.07R                  
BRIDGEPORT     MOCLDY    71  68  90 CALM      30.06R                  
DANBURY        MOCLDY    68  65  90 CALM      30.09R                  
GROTON         PTCLDY    71  69  93 CALM      30.06R                  
NEW HAVEN      MOCLDY    72  70  93 CALM      30.06S                  
CHESTER        MOCLDY    68  68 100 CALM      30.08R                  
MERIDEN        PTCLDY    67  64  90 CALM      30.07R                  
WILLIMANTIC    PTCLDY    64  63  96 N5        30.07S                  
OXFORD         PTCLDY    65  63  93 CALM      30.10R                  
$$

MEZ002-015-021-024-NHZ003-005-008-011-012-014-VTZ005-008-221000-
NORTHERN NEW ENGLAND
  
CITY           SKY/WX    TMP DP  RH WIND       PRES   REMARKS
PORTLAND ME    PTCLDY    57  56  96 CALM      30.08R                  
BANGOR ME      PTCLDY    55  49  80 S3        30.04R                  
CONCORD NH     CLEAR     55  54  96 CALM      30.09S                  
MANCHESTER NH  PTCLDY    60  56  86 CALM      30.07S                  
NASHUA NH      CLEAR     60  60 100 NW6       30.10R                  
PORTSMOUTH NH  PTCLDY    63  57  81 CALM      30.07R                  
JAFFREY NH     PTCLDY    58  54  86 CALM      30.12R                  
KEENE NH       CLOUDY    55  55 100 CALM      30.11R                  
BURLINGTON VT  CLEAR     59  55  87 E3        30.08R                  
MT. WASHINGTON FOG       43  43 100 W37         N/A  VSB 0   WCI  31  
$$

NYZ052-076-221000-
EASTERN NEW YORK
  
CITY           SKY/WX    TMP DP  RH WIND       PRES   REMARKS
ALBANY         FOG       66  64  93 CALM      30.08S VSB 1/2          
NEW YORK CITY  MOCLDY    76  67  73 S6        30.04S                  
$$
 
ANZALL-221000-
MARINE OBSERVATIONS
  
STATION/POSITION TIME  TEMP    WIND        PRES    VSBY  WAVE
                       AIR SEA DIR/SP/G                  HT/PER
                 (UTC) (F)     (DEG/KT/KT) (MB)    (MI)  (FT/S)
BOSTON BUOY      0850   66 65   CALM  /  2 1018.5R         1
BUZZARDS BAY     0800   71     260/ 11/ 11 1017.7F
NANTUCKET SOUND  0850   74 75  260/  4/  6 1017.3R         0
MASS BAY-STELLWA 0704   64 61  280/  2/  4 1018.0R  1 7/8  1/ 8
ISLE OF SHOALS   0800   66     320/  8/  8 1017.6R
S OF BLOCK IS    0856      73                N/A           3/ 8
$$

......................KEY.........................
  SKY/WX - SKY CONDITION/PRESENT WEATHER
  TMP    - TEMPERATURE IN FAHRENHEIT
  DWPT   - DEWPOINT IN FAHRENHEIT
  RH     - RELATIVE HUMIDITY IN PERCENT
  WIND   - DIRECTION AND SPEED IN MPH
  PRES   - MEAN SEA LEVEL PRESSURE IN INCHES OF HG
  WCI    - WIND CHILL INDEX
  VSB    - VISIBILITY IN MILES
  HX     - HEAT INDEX
  TC     - TEMPERATURE IN CELSIUS
  VRB    - VARIABLE WIND DIRECTION
  N/A    - NOT AVAILABLE
  
      

Other recent Regional Weather Roundups

Thu Jul 25, 11:10am EDT

Thu Jul 25, 10:10am EDT

Thu Jul 25, 9:10am EDT

Thu Jul 25, 8:10am EDT

Thu Jul 25, 7:10am EDT

Thu Jul 25, 6:10am EDT

Thu Jul 25, 5:10am EDT

Thu Jul 25, 4:10am EDT

Thu Jul 25, 3:10am EDT

Thu Jul 25, 2:10am EDT

Thu Jul 25, 1:10am EDT

Thu Jul 25, 12:10am EDT

Wed Jul 24, 11:10pm EDT

Wed Jul 24, 10:10pm EDT

Wed Jul 24, 9:10pm EDT

Wed Jul 24, 8:10pm EDT

Wed Jul 24, 7:10pm EDT

Wed Jul 24, 6:10pm EDT

Wed Jul 24, 5:10pm EDT

Wed Jul 24, 4:10pm EDT

Wed Jul 24, 3:10pm EDT

Wed Jul 24, 2:10pm EDT

Wed Jul 24, 1:10pm EDT

Wed Jul 24, 12:10pm EDT

Wed Jul 24, 11:10am EDT

Wed Jul 24, 10:10am EDT

Wed Jul 24, 9:10am EDT

Wed Jul 24, 8:10am EDT

Wed Jul 24, 7:10am EDT

Wed Jul 24, 6:10am EDT

Wed Jul 24, 5:10am EDT

Wed Jul 24, 4:10am EDT

Wed Jul 24, 3:10am EDT

Wed Jul 24, 2:10am EDT

Wed Jul 24, 1:10am EDT

Wed Jul 24, 12:10am EDT

Tue Jul 23, 11:10pm EDT

Tue Jul 23, 10:10pm EDT

Tue Jul 23, 9:10pm EDT

Tue Jul 23, 8:10pm EDT

Tue Jul 23, 7:10pm EDT

Tue Jul 23, 6:10pm EDT

Tue Jul 23, 5:10pm EDT

Tue Jul 23, 4:10pm EDT

Tue Jul 23, 3:10pm EDT

Tue Jul 23, 2:10pm EDT

Tue Jul 23, 1:10pm EDT

Tue Jul 23, 12:10pm EDT

Tue Jul 23, 11:10am EDT

Tue Jul 23, 10:10am EDT

Tue Jul 23, 10:10am EDT

Tue Jul 23, 9:10am EDT

Tue Jul 23, 8:10am EDT

Tue Jul 23, 7:10am EDT

Tue Jul 23, 6:10am EDT

Tue Jul 23, 5:10am EDT

Tue Jul 23, 4:10am EDT

Tue Jul 23, 3:10am EDT

Tue Jul 23, 2:10am EDT

Tue Jul 23, 1:10am EDT

Tue Jul 23, 12:10am EDT

Mon Jul 22, 11:10pm EDT

Mon Jul 22, 10:10pm EDT

Mon Jul 22, 9:10pm EDT

Mon Jul 22, 8:10pm EDT

Mon Jul 22, 7:10pm EDT

Mon Jul 22, 6:10pm EDT

Mon Jul 22, 5:10pm EDT

Mon Jul 22, 4:10pm EDT

Mon Jul 22, 3:10pm EDT

Mon Jul 22, 2:10pm EDT

Mon Jul 22, 1:10pm EDT

Mon Jul 22, 12:10pm EDT

Mon Jul 22, 11:10am EDT

Mon Jul 22, 10:10am EDT

Mon Jul 22, 9:10am EDT

Mon Jul 22, 8:10am EDT

Mon Jul 22, 7:10am EDT

Mon Jul 22, 6:10am EDT

Mon Jul 22, 4:10am EDT

Mon Jul 22, 3:10am EDT

Mon Jul 22, 2:10am EDT

Mon Jul 22, 1:10am EDT

Mon Jul 22, 12:10am EDT

Sun Jul 21, 11:10pm EDT

Sun Jul 21, 10:10pm EDT

Sun Jul 21, 9:10pm EDT

Sun Jul 21, 8:10pm EDT

Sun Jul 21, 7:10pm EDT

Sun Jul 21, 6:10pm EDT

Sun Jul 21, 5:10pm EDT

Sun Jul 21, 4:10pm EDT

Sun Jul 21, 3:10pm EDT

Sun Jul 21, 2:10pm EDT

Sun Jul 21, 1:10pm EDT

Sun Jul 21, 12:10pm EDT

Sun Jul 21, 11:10am EDT

Sun Jul 21, 10:10am EDT

Sun Jul 21, 9:10am EDT

Sun Jul 21, 8:10am EDT

Sun Jul 21, 7:10am EDT

Sun Jul 21, 6:10am EDT

Sun Jul 21, 5:10am EDT

Sun Jul 21, 4:10am EDT

Sun Jul 21, 3:10am EDT

Sun Jul 21, 2:10am EDT

Sun Jul 21, 1:10am EDT

Sun Jul 21, 12:10am EDT

Sat Jul 20, 11:10pm EDT

Sat Jul 20, 10:10pm EDT

Sat Jul 20, 9:10pm EDT

Sat Jul 20, 8:10pm EDT

Sat Jul 20, 7:10pm EDT

Sat Jul 20, 6:10pm EDT

Sat Jul 20, 5:10pm EDT

Sat Jul 20, 4:10pm EDT

Sat Jul 20, 3:10pm EDT

Sat Jul 20, 2:10pm EDT

Sat Jul 20, 1:10pm EDT

Sat Jul 20, 12:10pm EDT

Sat Jul 20, 11:10am EDT

Sat Jul 20, 10:10am EDT

Sat Jul 20, 9:10am EDT

Sat Jul 20, 8:10am EDT

Sat Jul 20, 7:10am EDT

Sat Jul 20, 6:10am EDT

Sat Jul 20, 5:10am EDT

Sat Jul 20, 4:10am EDT

Sat Jul 20, 3:10am EDT

Sat Jul 20, 2:10am EDT

Sat Jul 20, 1:10am EDT

Sat Jul 20, 12:10am EDT

Fri Jul 19, 11:10pm EDT

Fri Jul 19, 10:10pm EDT

Fri Jul 19, 9:10pm EDT

Fri Jul 19, 8:10pm EDT

Fri Jul 19, 7:10pm EDT

Fri Jul 19, 6:10pm EDT

Fri Jul 19, 5:10pm EDT

Fri Jul 19, 4:10pm EDT

Fri Jul 19, 3:10pm EDT

Fri Jul 19, 2:10pm EDT

Fri Jul 19, 1:10pm EDT

Fri Jul 19, 12:10pm EDT

Fri Jul 19, 11:10am EDT

Fri Jul 19, 10:10am EDT

Fri Jul 19, 9:10am EDT

Fri Jul 19, 8:10am EDT

Fri Jul 19, 7:10am EDT

Fri Jul 19, 6:10am EDT

Fri Jul 19, 5:10am EDT

Fri Jul 19, 4:10am EDT

Fri Jul 19, 3:10am EDT

Fri Jul 19, 2:10am EDT

Fri Jul 19, 1:10am EDT

Fri Jul 19, 12:10am EDT

Thu Jul 18, 11:10pm EDT

Thu Jul 18, 10:10pm EDT

Thu Jul 18, 9:10pm EDT

Thu Jul 18, 8:10pm EDT

Thu Jul 18, 7:10pm EDT

Thu Jul 18, 6:10pm EDT

Thu Jul 18, 5:10pm EDT

Thu Jul 18, 4:10pm EDT

Thu Jul 18, 3:10pm EDT

Thu Jul 18, 2:10pm EDT

Thu Jul 18, 1:10pm EDT

Thu Jul 18, 12:10pm EDT